Weather observations for the past three days for
Bryce Canyon Airport
Imperial (Metric)
Date Time (mdt) Wind (mph) Vis. (mi.) Weather Sky Cond. Temperature (ºF) Relative Humidity Wind Chill (°F) Heat Index (°F) Pressure Precipitation (in)
Air Dwpt 6 hour altimeter (in) sea level (mb) 1 hr 3 hr 6 hr
Max. Min.
24 05:53 Calm 10.00 Fair CLR 50 46.9 57 50 89% 30.48 1020.6
24 04:53 W 9 10.00 Fair CLR 54 48 80% 30.47 1019.9
24 03:53 W 5 10.00 Fair CLR 52 48 86% 30.47 1019.8
24 02:53 W 8 10.00 Fair CLR 53.1 48.9 86% 30.47 1019.4
24 01:53 W 7 10.00 Fair CLR 53.1 48.9 86% 30.46 1020.4
24 00:53 W 8 10.00 Fair CLR 55 50 83% 30.47 1018.3
23 23:53 W 8 10.00 Fair CLR 57 51.1 75 55.9 81% 30.47 1018.2
23 22:53 W 5 10.00 Fair CLR 57.9 51.1 78% 30.46 1018.1
23 21:53 Calm 10.00 Fair CLR 64 48.9 58% 30.45 1017.7
23 20:53 Calm 10.00 Fair CLR 66 50 56% 30.43 1017.6
23 19:53 W 9 10.00 Mostly Cloudy BKN120 70 48.9 47% 30.43 1018.5
23 18:53 W 12 10.00 Overcast OVC100 71.1 48.9 46% 30.43 1019.2
23 17:53 S 9 10.00 A Few Clouds FEW120 73.9 48.9 86 68 41% 30.42 1018.6 0.15
23 16:53 S 14 10.00 Mostly Cloudy BKN110 73.9 48.9 41% 30.43 1018.6
23 15:53 NE 10 10.00 Overcast OVC110 75.9 48 37% 78 30.42 1018.0
23 13:53 Calm 2.50 Heavy Rain SCT038 OVC085 69.1 51.1 53% 30.43 1019.1 0.14
23 12:53 Vrbl 5 G 20 10.00 Fair CLR 84.9 39.9 20% 82 30.39 1015.4
23 11:53 SE 13 G 21 10.00 Fair CLR 82 43 82 50 25% 80 30.41 1015.9
23 10:53 SE 8 10.00 Fair CLR 79 41 26% 78 30.41 1016.2
23 09:53 Calm 10.00 Fair CLR 73.9 44.1 34% 30.41 1016.1
23 08:53 W 3 10.00 Fair CLR 68 46.9 47% 30.41 1016.0
23 07:53 W 7 10.00 Fair CLR 57.9 46 65% 30.4 1016.4
23 06:53 W 6 10.00 Fair CLR 51.1 45 80% 30.39 1016.8
23 05:53 W 7 10.00 Fair CLR 50 45 57.9 48.9 83% 48 30.38 1016.3
23 04:53 Calm 10.00 Fair CLR 51.1 45 80% 30.36 1015.2
23 03:53 W 7 10.00 Fair CLR 52 46 80% 30.36 1015.1
23 02:53 W 7 10.00 Fair CLR 50 44.1 80% 48 30.36 1015.3
23 01:53 W 8 10.00 Fair CLR 53.1 46.9 80% 30.36 1015.4
23 00:53 W 3 10.00 Fair CLR 54 46 75% 30.36 1015.0
22 23:53 SW 5 10.00 A Few Clouds FEW110 57.9 46 80.1 57.9 65% 30.36 1014.5
22 22:53 SW 5 10.00 Fair CLR 57.9 44.1 60% 30.34 1014.5
22 21:53 Calm 10.00 A Few Clouds FEW110 66 46 49% 30.32 1013.0
22 20:53 Calm 10.00 Fair CLR 71.1 45 39% 30.3 1012.6
22 19:53 S 6 10.00 Fair CLR 77 42.1 29% 78 30.3 1013.1
22 18:53 SE 9 10.00 A Few Clouds FEW110 79 42.1 27% 78 30.29 1013.3
22 17:53 SW 3 10.00 A Few Clouds FEW110 80.1 37.9 84 73.9 22% 79 30.29 1013.4
22 16:53 E 7 10.00 Mostly Cloudy BKN110 82 39.9 22% 80 30.29 1013.3
22 15:53 W 8 10.00 Partly Cloudy SCT110 81 41 24% 79 30.31 1013.5
22 14:53 Calm 10.00 Partly Cloudy SCT120 81 39 22% 79 30.33 1014.3
22 13:53 W 5 10.00 Mostly Cloudy FEW060 SCT075 BKN120 79 39.9 25% 78 30.35 1015.1
22 12:53 S 8 10.00 A Few Clouds FEW090 FEW110 79 41 26% 78 30.36 1014.9
22 11:53 SE 13 G 17 10.00 A Few Clouds FEW120 79 42.1 80.1 46.9 27% 78 30.36 1014.9
22 10:53 Calm 10.00 Fair CLR 75.9 39 26% 77 30.38 1015.6
22 09:53 Calm 10.00 Fair CLR 73 41 32% 30.38 1016.1
22 08:53 Calm 10.00 Fair CLR 66 45 47% 30.39 1016.3
22 07:53 W 7 10.00 Fair CLR 55 46.9 74% 30.39 1016.3
22 06:53 W 8 10.00 A Few Clouds FEW100 48.9 45 86% 46 30.38 1016.8
22 05:53 W 8 10.00 A Few Clouds FEW100 48 44.1 55.9 48 86% 45 30.37 1016.8
22 04:53 W 6 10.00 Fair CLR 48 44.1 86% 46 30.36 1016.5
22 03:53 W 8 10.00 Fair CLR 50 45 83% 47 30.36 1017.2
22 02:53 W 8 10.00 Fair CLR 51.1 46 83% 30.36 1017.7
22 01:53 W 9 10.00 Fair CLR 53.1 46.9 80% 30.36 1017.2
22 00:53 W 7 10.00 Fair CLR 55 46.9 74% 30.37 1015.2
21 23:53 W 8 10.00 Fair CLR 55.9 48.9 78.1 55.9 77% 30.37 1015.3
21 22:53 W 8 10.00 Fair CLR 57 51.1 81% 30.37 1015.5
21 21:53 W 6 10.00 Fair CLR 57.9 51.1 78% 30.36 1015.5
21 20:53 Calm 10.00 Fair CLR 66 52 61% 30.34 1014.7
21 19:53 Calm 10.00 Fair CLR 77 45 32% 78 30.34 1014.5
21 18:53 SW 3 10.00 A Few Clouds FEW100 FEW120 75.9 45 33% 77 30.34 1015.4
21 17:53 SW 5 10.00 Fair CLR 75 51.1 81 63 43% 78 30.36 1016.4 0.06
21 16:53 S 7 10.00 Mostly Cloudy SCT100 BKN110 75 50 42% 78 30.38 1017.3
21 15:53 SW 5 10.00 Light Rain FEW028 SCT065 BKN110 68 54 61% 30.39 1018.1
21 14:53 S 8 10.00 Thunderstorm in Vicinity FEW090 63 55 76% 30.42 1019.6 0.06
21 13:53 SE 13 G 18 3.00 Thunderstorm in Vicinity Rain FEW055 BKN080 OVC120 64.9 53.1 66% 30.41 1018.8 0.06
21 12:53 SE 9 10.00 Mostly Cloudy BKN080 80.1 46 30% 79 30.4 1015.7
21 11:53 E 10 G 17 10.00 Fair CLR 79 46.9 79 48 32% 79 30.41 1016.4
21 10:53 SE 5 10.00 Fair CLR 75.9 46 35% 78 30.42 1016.8
21 09:53 NE 7 10.00 Fair CLR 73 45 37% 30.42 1017.1
21 08:53 NE 7 10.00 Fair CLR 66 46 49% 30.43 1017.8
21 07:53 W 5 10.00 Fair CLR 57 48 72% 30.42 1017.5
21 06:53 W 8 10.00 Fair CLR 48.9 46 90% 46 30.41 1018.1
Date Time (mdt) Wind (mph) Vis. (mi.) Weather Sky Cond. Air Dwpt Max. Min. Relative Humidity Wind Chill (°F) Heat Index (°F) altimeter (in) sea level (mb) 1 hr 3 hr 6 hr
6 hour
Temperature (ºF) Pressure Precipitation (in)